Location: Home
(42.5358°N, 72.7383°W)
Time: 18:53:45
(UTC-05:00)

Explorer 7 - All Passes

Search period start: 29 November 2021 00:00
Search period end: 09 December 2021 00:00
Orbit: 483 x 675 km, 50.3° (Epoch: 29 November)

Date Brightness Start Highest point End Pass type
(mag) Time Alt. Az. Time Alt. Az. Time Alt. Az.
29 Nov - 06:22:13 10° SSW 06:26:01 32° SE 06:29:37 10° ENE visible
29 Nov - 08:02:18 10° WSW 08:06:21 54° NNW 08:10:12 10° NE daylight
29 Nov - 09:43:59 10° WNW 09:47:22 26° N 09:50:37 10° NE daylight
29 Nov - 11:25:01 10° NW 11:28:32 33° NNE 11:31:58 10° E daylight
29 Nov - 13:05:25 10° WNW 13:09:09 64° SW 13:12:51 10° SE daylight
30 Nov - 06:25:49 10° SW 06:29:57 50° SE 06:33:52 10° ENE visible
30 Nov - 08:06:35 10° W 08:10:29 40° NNW 08:14:13 10° NE daylight
30 Nov - 09:48:17 10° WNW 09:51:37 25° N 09:54:50 10° ENE daylight
30 Nov - 11:29:03 10° NW 11:32:43 42° NNE 11:36:18 10° E daylight
30 Nov - 13:09:35 10° WNW 13:13:07 39° SW 13:16:37 10° SSE daylight
01 Dec - 04:51:35 10° SSE 04:53:57 14° SE 04:56:14 10° E visible
01 Dec - 06:29:40 10° SW 06:33:57 78° SE 06:37:59 10° ENE visible
01 Dec - 08:10:56 10° W 08:14:40 33° NNW 08:18:14 10° NE daylight
01 Dec - 09:52:30 10° NW 09:55:53 26° N 09:59:09 10° ENE daylight
01 Dec - 11:33:03 10° NW 11:36:51 59° NNE 11:40:33 10° ESE daylight
01 Dec - 13:13:57 10° W 13:17:00 24° SW 13:20:03 10° S daylight
02 Dec - 04:54:19 10° S 04:57:48 23° SE 05:01:06 10° E visible
02 Dec - 06:33:43 10° WSW 06:38:00 72° NNW 06:42:01 10° ENE daylight
02 Dec - 08:15:19 10° WNW 08:18:54 28° N 08:22:20 10° NE daylight
02 Dec - 09:56:37 10° NW 10:00:07 29° NNE 10:03:30 10° ENE daylight
02 Dec - 11:37:05 10° WNW 11:40:55 88° NNE 11:44:39 10° ESE daylight
02 Dec - 13:18:43 10° W 13:20:50 15° SW 13:22:56 10° SSW daylight
03 Dec - 04:57:39 10° SSW 05:01:41 36° SE 05:05:30 10° ENE visible
03 Dec - 06:37:54 10° WSW 06:42:05 51° NNW 06:46:01 10° NE daylight
03 Dec - 08:19:39 10° WNW 08:23:09 26° N 08:26:29 10° NE daylight
03 Dec - 10:00:41 10° NW 10:04:20 35° NNE 10:07:50 10° E daylight
03 Dec - 11:41:09 10° WNW 11:44:55 58° SW 11:48:35 10° SE daylight
04 Dec - 05:01:18 10° SW 05:05:38 56° SE 05:09:43 10° ENE visible
04 Dec - 06:42:12 10° W 06:46:14 39° NNW 06:50:02 10° NE daylight
04 Dec - 08:23:55 10° WNW 08:27:23 26° N 08:30:43 10° ENE daylight
04 Dec - 10:04:41 10° NW 10:08:29 46° NNE 10:12:08 10° E daylight
04 Dec - 11:45:20 10° WNW 11:48:51 35° SW 11:52:16 10° SSE daylight
05 Dec - 03:26:42 10° S 03:29:33 17° SE 03:32:19 10° E visible
05 Dec - 05:05:11 10° SW 05:09:37 85° SE 05:13:47 10° ENE visible
05 Dec - 06:46:33 10° W 06:50:24 32° NNW 06:54:04 10° NE daylight
05 Dec - 08:28:07 10° NW 08:31:38 27° N 08:35:01 10° ENE daylight
05 Dec - 10:08:42 10° NW 10:12:36 64° NNE 10:16:21 10° ESE daylight
05 Dec - 11:49:44 10° W 11:52:42 22° SW 11:55:37 10° S daylight
06 Dec - 03:29:37 10° SSW 03:33:23 26° SE 03:37:00 10° E visible
06 Dec - 05:09:15 10° WSW 05:13:40 68° NNW 05:17:48 10° NE visible
06 Dec - 06:50:54 10° WNW 06:54:37 29° N 06:58:09 10° NE daylight
06 Dec - 08:32:13 10° NW 08:35:52 31° NNE 08:39:21 10° ENE daylight
06 Dec - 10:12:42 10° WNW 10:16:38 85° SW 10:20:25 10° SE daylight
06 Dec - 11:54:38 10° W 11:56:30 13° SW 11:58:21 10° SSW daylight
07 Dec - 03:33:01 10° SSW 03:37:17 40° SE 03:41:19 10° ENE visible
07 Dec - 05:13:27 10° W 05:17:45 50° NNW 05:21:48 10° NE visible
07 Dec - 06:55:13 10° WNW 06:58:51 27° N 07:02:19 10° ENE daylight
07 Dec - 08:36:16 10° NW 08:40:04 38° NNE 08:43:41 10° E daylight
07 Dec - 10:16:48 10° WNW 10:20:38 53° SW 10:24:17 10° SE daylight
08 Dec - 01:59:42 10° SSE 02:01:19 12° SE 02:02:53 10° ESE night (unlit)
08 Dec - 03:36:43 10° SW 03:41:13 62° SE 03:45:28 10° ENE visible
08 Dec - 05:17:44 10° W 05:21:53 39° NNW 05:25:48 10° NE visible
08 Dec - 06:59:28 10° WNW 07:03:06 27° N 07:06:33 10° ENE daylight
08 Dec - 08:40:15 10° NW 08:44:12 49° NNE 08:47:57 10° E daylight
08 Dec - 10:21:00 10° WNW 10:24:31 32° SW 10:27:55 10° SSE daylight
